Year,Month,Day,Hour,Minute,Value (Times are PST for temperature in C)
2018,06,18,00,00,22.50
2018,06,18,00,01,22.50
2018,06,18,00,02,22.50
2018,06,18,00,03,22.50
2018,06,18,00,04,22.50
2018,06,18,00,05,22.50
2018,06,18,00,06,22.50
2018,06,18,00,07,22.50
2018,06,18,00,08,22.60
2018,06,18,00,09,22.60
2018,06,18,00,10,22.60
2018,06,18,00,11,22.60
2018,06,18,00,12,22.70
2018,06,18,00,13,22.70
2018,06,18,00,14,22.80
2018,06,18,00,15,22.80
2018,06,18,00,16,22.90
2018,06,18,00,17,23.00
2018,06,18,00,18,23.00
2018,06,18,00,19,23.10
2018,06,18,00,20,23.20
2018,06,18,00,21,23.20
2018,06,18,00,22,23.30
2018,06,18,00,23,23.40
2018,06,18,00,24,23.40
2018,06,18,00,25,23.50
2018,06,18,00,26,23.60
2018,06,18,00,27,23.60
2018,06,18,00,28,23.60
2018,06,18,00,29,23.70
2018,06,18,00,30,23.70
2018,06,18,00,31,23.70
2018,06,18,00,32,23.70
2018,06,18,00,33,23.70
2018,06,18,00,34,23.70
2018,06,18,00,35,23.80
2018,06,18,00,36,23.80
2018,06,18,00,37,23.80
2018,06,18,00,38,23.80
2018,06,18,00,39,23.80
2018,06,18,00,40,23.80
2018,06,18,00,41,23.80
2018,06,18,00,42,23.80
2018,06,18,00,43,23.80
2018,06,18,00,44,23.80
2018,06,18,00,45,23.80
2018,06,18,00,46,23.90
2018,06,18,00,47,23.90
2018,06,18,00,48,23.80
2018,06,18,00,49,23.80
2018,06,18,00,50,23.80
2018,06,18,00,51,23.80
2018,06,18,00,52,23.80
2018,06,18,00,53,23.70
2018,06,18,00,54,23.70
2018,06,18,00,55,23.70
2018,06,18,00,56,23.60
2018,06,18,00,57,23.60
2018,06,18,00,58,23.50
2018,06,18,00,59,23.40
2018,06,18,01,00,23.40
2018,06,18,01,01,23.30
2018,06,18,01,02,23.30
2018,06,18,01,03,23.20
2018,06,18,01,04,23.20
2018,06,18,01,05,23.10
2018,06,18,01,06,23.00
2018,06,18,01,07,22.90
2018,06,18,01,08,22.90
2018,06,18,01,09,22.80
2018,06,18,01,10,22.80
2018,06,18,01,11,22.70
2018,06,18,01,12,22.70
2018,06,18,01,13,22.60
2018,06,18,01,14,22.60
2018,06,18,01,15,22.50
2018,06,18,01,16,22.40
2018,06,18,01,17,22.40
2018,06,18,01,18,22.30
2018,06,18,01,19,22.30
2018,06,18,01,20,22.20
2018,06,18,01,21,22.20
2018,06,18,01,22,22.20
2018,06,18,01,23,22.20
2018,06,18,01,24,22.20
2018,06,18,01,25,22.20
2018,06,18,01,26,22.20
2018,06,18,01,27,22.10
2018,06,18,01,28,22.10
2018,06,18,01,29,22.10
2018,06,18,01,30,22.10
2018,06,18,01,31,22.00
2018,06,18,01,32,22.00
2018,06,18,01,33,21.90
2018,06,18,01,34,21.90
2018,06,18,01,35,21.80
2018,06,18,01,36,21.80
2018,06,18,01,37,21.80
2018,06,18,01,38,21.70
2018,06,18,01,39,21.70
2018,06,18,01,40,21.60
2018,06,18,01,41,21.60
2018,06,18,01,42,21.60
2018,06,18,01,43,21.50
2018,06,18,01,44,21.40
2018,06,18,01,45,21.40
2018,06,18,01,46,21.40
2018,06,18,01,47,21.40
2018,06,18,01,48,21.30
2018,06,18,01,49,21.30
2018,06,18,01,50,21.30
2018,06,18,01,51,21.30
2018,06,18,01,52,21.20
2018,06,18,01,53,21.20
2018,06,18,01,54,21.20
2018,06,18,01,55,21.20
2018,06,18,01,56,21.20
2018,06,18,01,57,21.10
2018,06,18,01,58,21.10
2018,06,18,01,59,21.10
2018,06,18,02,00,21.10
2018,06,18,02,01,21.00
2018,06,18,02,02,21.00
2018,06,18,02,03,20.90
2018,06,18,02,04,20.90
2018,06,18,02,05,20.80
2018,06,18,02,06,20.80
2018,06,18,02,07,20.80
2018,06,18,02,08,20.70
2018,06,18,02,09,20.70
2018,06,18,02,10,20.60
2018,06,18,02,11,20.60
2018,06,18,02,12,20.50
2018,06,18,02,13,20.40
2018,06,18,02,14,20.40
2018,06,18,02,15,20.30
2018,06,18,02,16,20.30
2018,06,18,02,17,20.20
2018,06,18,02,18,20.20
2018,06,18,02,19,20.20
2018,06,18,02,20,20.10
2018,06,18,02,21,20.10
2018,06,18,02,22,20.00
2018,06,18,02,23,19.90
2018,06,18,02,24,19.90
2018,06,18,02,25,19.90
2018,06,18,02,26,19.80
2018,06,18,02,27,19.70
2018,06,18,02,28,19.70
2018,06,18,02,29,19.60
2018,06,18,02,30,19.50
2018,06,18,02,31,19.40
2018,06,18,02,32,19.40
2018,06,18,02,33,19.30
2018,06,18,02,34,19.30
2018,06,18,02,35,19.30
2018,06,18,02,36,19.30
2018,06,18,02,37,19.20
2018,06,18,02,38,19.20
2018,06,18,02,39,19.20
2018,06,18,02,40,19.20
2018,06,18,02,41,19.10
2018,06,18,02,42,19.10
2018,06,18,02,43,19.10
2018,06,18,02,44,19.10
2018,06,18,02,45,19.10
2018,06,18,02,46,19.10
2018,06,18,02,47,19.00
2018,06,18,02,48,19.00
2018,06,18,02,49,19.00
2018,06,18,02,50,18.90
2018,06,18,02,51,18.90
2018,06,18,02,52,18.90
2018,06,18,02,53,18.80
2018,06,18,02,54,18.80
2018,06,18,02,55,18.80
2018,06,18,02,56,18.80
2018,06,18,02,57,18.70
2018,06,18,02,58,18.70
2018,06,18,02,59,18.70
2018,06,18,03,00,18.70
2018,06,18,03,01,18.60
2018,06,18,03,02,18.60
2018,06,18,03,03,18.60
2018,06,18,03,04,18.60
2018,06,18,03,05,18.60
2018,06,18,03,06,18.50
2018,06,18,03,07,18.50
2018,06,18,03,08,18.50
2018,06,18,03,09,18.50
2018,06,18,03,10,18.50
2018,06,18,03,11,18.40
2018,06,18,03,12,18.40
2018,06,18,03,13,18.40
2018,06,18,03,14,18.40
2018,06,18,03,15,18.40
2018,06,18,03,16,18.40
2018,06,18,03,17,18.30
2018,06,18,03,18,18.30
2018,06,18,03,19,18.30
2018,06,18,03,20,18.30
2018,06,18,03,21,18.30
2018,06,18,03,22,18.30
2018,06,18,03,23,18.30
2018,06,18,03,24,18.30
2018,06,18,03,25,18.30
2018,06,18,03,26,18.20
2018,06,18,03,27,18.20
2018,06,18,03,28,18.20
2018,06,18,03,29,18.20
2018,06,18,03,30,18.20
2018,06,18,03,31,18.10
2018,06,18,03,32,18.10
2018,06,18,03,33,18.10
2018,06,18,03,34,18.10
2018,06,18,03,35,18.10
2018,06,18,03,36,18.10
2018,06,18,03,37,18.10
2018,06,18,03,38,18.10
2018,06,18,03,39,18.00
2018,06,18,03,40,18.00
2018,06,18,03,41,18.00
2018,06,18,03,42,18.00
2018,06,18,03,43,18.00
2018,06,18,03,44,17.90
2018,06,18,03,45,17.90
2018,06,18,03,46,17.90
2018,06,18,03,47,17.90
2018,06,18,03,48,17.90
2018,06,18,03,49,17.90
2018,06,18,03,50,17.90
2018,06,18,03,51,17.80
2018,06,18,03,52,17.80
2018,06,18,03,53,17.80
2018,06,18,03,54,17.80
2018,06,18,03,55,17.80
2018,06,18,03,56,17.80
2018,06,18,03,57,17.70
2018,06,18,03,58,17.70
2018,06,18,03,59,17.70
2018,06,18,04,00,17.70
2018,06,18,04,01,17.70
2018,06,18,04,02,17.70
2018,06,18,04,03,17.60
2018,06,18,04,04,17.60
2018,06,18,04,05,17.60
2018,06,18,04,06,17.60
2018,06,18,04,07,17.60
2018,06,18,04,08,17.50
2018,06,18,04,09,17.50
2018,06,18,04,10,17.50
2018,06,18,04,11,17.50
2018,06,18,04,12,17.40
2018,06,18,04,13,17.40
2018,06,18,04,14,17.40
2018,06,18,04,15,17.40
2018,06,18,04,16,17.40
2018,06,18,04,17,17.30
2018,06,18,04,18,17.30
2018,06,18,04,19,17.30
2018,06,18,04,20,17.30
2018,06,18,04,21,17.30
2018,06,18,04,22,17.30
2018,06,18,04,23,17.30
2018,06,18,04,24,17.20
2018,06,18,04,25,17.20
2018,06,18,04,26,17.20
2018,06,18,04,27,17.10
2018,06,18,04,28,17.10
2018,06,18,04,29,17.00
2018,06,18,04,30,17.00
2018,06,18,04,31,16.90
2018,06,18,04,32,16.90
2018,06,18,04,33,16.80
2018,06,18,04,34,16.80
2018,06,18,04,35,16.70
2018,06,18,04,36,16.70
2018,06,18,04,37,16.70
2018,06,18,04,38,16.60
2018,06,18,04,39,16.60
2018,06,18,04,40,16.50
2018,06,18,04,41,16.40
2018,06,18,04,42,16.40
2018,06,18,04,43,16.30
2018,06,18,04,44,16.30
2018,06,18,04,45,16.30
2018,06,18,04,46,16.20
2018,06,18,04,47,16.20
2018,06,18,04,48,16.20
2018,06,18,04,49,16.10
2018,06,18,04,50,16.10
2018,06,18,04,51,16.00
2018,06,18,04,52,16.00
2018,06,18,04,53,16.00
2018,06,18,04,54,15.90
2018,06,18,04,55,15.90
2018,06,18,04,56,15.90
2018,06,18,04,57,15.80
2018,06,18,04,58,15.80
2018,06,18,04,59,15.80
2018,06,18,05,00,15.80
2018,06,18,05,01,15.80
2018,06,18,05,02,15.80
2018,06,18,05,03,15.80
2018,06,18,05,04,15.80
2018,06,18,05,05,15.80
2018,06,18,05,06,15.80
2018,06,18,05,07,15.80
2018,06,18,05,08,15.70
2018,06,18,05,09,15.70
2018,06,18,05,10,15.70
2018,06,18,05,11,15.70
2018,06,18,05,12,15.70
2018,06,18,05,13,15.70
2018,06,18,05,14,15.70
2018,06,18,05,15,15.60
2018,06,18,05,16,15.60
2018,06,18,05,17,15.60
2018,06,18,05,18,15.60
2018,06,18,05,19,15.60
2018,06,18,05,20,15.60
2018,06,18,05,21,15.60
2018,06,18,05,22,15.60
2018,06,18,05,23,15.60
2018,06,18,05,24,15.60
2018,06,18,05,25,15.60
2018,06,18,05,26,15.60
2018,06,18,05,27,15.60
2018,06,18,05,28,15.60
2018,06,18,05,29,15.60
2018,06,18,05,30,15.60
2018,06,18,05,31,15.60
2018,06,18,05,32,15.60
2018,06,18,05,33,15.60
2018,06,18,05,34,15.60
2018,06,18,05,35,15.60
2018,06,18,05,36,15.60
2018,06,18,05,37,15.60
2018,06,18,05,38,15.60
2018,06,18,05,39,15.60
2018,06,18,05,40,15.60
2018,06,18,05,41,15.60
2018,06,18,05,42,15.60
2018,06,18,05,43,15.60
2018,06,18,05,44,15.60
2018,06,18,05,45,15.60
2018,06,18,05,46,15.60
2018,06,18,05,47,15.60
2018,06,18,05,48,15.60
2018,06,18,05,49,15.70
2018,06,18,05,50,15.70
2018,06,18,05,51,15.70
2018,06,18,05,52,15.70
2018,06,18,05,53,15.70
2018,06,18,05,54,15.60
2018,06,18,05,55,15.60
2018,06,18,05,56,15.60
2018,06,18,05,57,15.60
2018,06,18,05,58,15.60
2018,06,18,05,59,15.60
2018,06,18,06,00,15.60
2018,06,18,06,01,15.60
2018,06,18,06,02,15.60
2018,06,18,06,03,15.60
2018,06,18,06,04,15.60
2018,06,18,06,05,15.70
2018,06,18,06,06,15.70
2018,06,18,06,07,15.70
2018,06,18,06,08,15.70
2018,06,18,06,09,15.70
2018,06,18,06,10,15.80
2018,06,18,06,11,15.80
2018,06,18,06,12,15.80
2018,06,18,06,13,15.80
2018,06,18,06,14,15.80
2018,06,18,06,15,15.90
2018,06,18,06,16,15.90
2018,06,18,06,17,15.90
2018,06,18,06,18,15.90
2018,06,18,06,19,15.90
2018,06,18,06,20,15.90
2018,06,18,06,21,15.90
2018,06,18,06,22,16.00
2018,06,18,06,23,16.00
2018,06,18,06,24,16.00
2018,06,18,06,25,16.10
2018,06,18,06,26,16.10
2018,06,18,06,27,16.10
2018,06,18,06,28,16.10
2018,06,18,06,29,16.20
2018,06,18,06,30,16.20
2018,06,18,06,31,16.20
2018,06,18,06,32,16.30
2018,06,18,06,33,16.30
2018,06,18,06,34,16.30
2018,06,18,06,35,16.30
2018,06,18,06,36,16.40
2018,06,18,06,37,16.40
2018,06,18,06,38,16.40
2018,06,18,06,39,16.50
2018,06,18,06,40,16.50
2018,06,18,06,41,16.60
2018,06,18,06,42,16.60
2018,06,18,06,43,16.60
2018,06,18,06,44,16.70
2018,06,18,06,45,16.70
2018,06,18,06,46,16.70
2018,06,18,06,47,16.80
2018,06,18,06,48,16.80
2018,06,18,06,49,16.90
2018,06,18,06,50,16.90
2018,06,18,06,51,17.00
2018,06,18,06,52,17.10
2018,06,18,06,53,17.10
2018,06,18,06,54,17.20
2018,06,18,06,55,17.20
2018,06,18,06,56,17.30
2018,06,18,06,57,17.30
2018,06,18,06,58,17.40
2018,06,18,06,59,17.50
2018,06,18,07,00,17.50
2018,06,18,07,01,17.60
2018,06,18,07,02,17.60
2018,06,18,07,03,17.70
2018,06,18,07,04,17.70
2018,06,18,07,05,17.80
2018,06,18,07,06,17.80
2018,06,18,07,07,17.90
2018,06,18,07,08,18.00
2018,06,18,07,09,18.10
2018,06,18,07,10,18.10
2018,06,18,07,11,18.20
2018,06,18,07,12,18.20
2018,06,18,07,13,18.30
2018,06,18,07,14,18.30
2018,06,18,07,15,18.40
2018,06,18,07,16,18.40
2018,06,18,07,17,18.50
2018,06,18,07,18,18.60
2018,06,18,07,19,18.60
2018,06,18,07,20,18.70
2018,06,18,07,21,18.70
2018,06,18,07,22,18.70
2018,06,18,07,23,18.70
2018,06,18,07,24,18.80
2018,06,18,07,25,18.80
2018,06,18,07,26,18.80
2018,06,18,07,27,18.90
2018,06,18,07,28,18.90
2018,06,18,07,29,18.90
2018,06,18,07,30,18.90
2018,06,18,07,31,19.00
2018,06,18,07,32,19.00
2018,06,18,07,33,19.10
2018,06,18,07,34,19.10
2018,06,18,07,35,19.10
2018,06,18,07,36,19.10
2018,06,18,07,37,19.20
2018,06,18,07,38,19.20
2018,06,18,07,39,19.20
2018,06,18,07,40,19.30
2018,06,18,07,41,19.30
2018,06,18,07,42,19.30
2018,06,18,07,43,19.40
2018,06,18,07,44,19.40
2018,06,18,07,45,19.50
2018,06,18,07,46,19.50
2018,06,18,07,47,19.60
2018,06,18,07,48,19.60
2018,06,18,07,49,19.70
2018,06,18,07,50,19.70
2018,06,18,07,51,19.80
2018,06,18,07,52,19.90
2018,06,18,07,53,20.00
2018,06,18,07,54,20.10
2018,06,18,07,55,20.30
2018,06,18,07,56,20.30
2018,06,18,07,57,20.50
2018,06,18,07,58,20.60
2018,06,18,07,59,20.70
2018,06,18,08,00,20.70
2018,06,18,08,01,20.80
2018,06,18,08,02,20.90
2018,06,18,08,03,21.00
2018,06,18,08,04,21.10
2018,06,18,08,05,21.20
2018,06,18,08,06,21.30
2018,06,18,08,07,21.40
2018,06,18,08,08,21.50
2018,06,18,08,09,21.60
2018,06,18,08,10,21.70
2018,06,18,08,11,21.80
2018,06,18,08,12,21.90
2018,06,18,08,13,22.00
2018,06,18,08,14,22.10
2018,06,18,08,15,22.20
2018,06,18,08,16,22.30
2018,06,18,08,17,22.40
2018,06,18,08,18,22.50
2018,06,18,08,19,22.70
2018,06,18,08,20,22.70
2018,06,18,08,21,22.80
2018,06,18,08,22,22.80
2018,06,18,08,23,22.80
2018,06,18,08,24,22.80
2018,06,18,08,25,22.80
2018,06,18,08,26,22.80
2018,06,18,08,27,22.90
2018,06,18,08,28,22.80
2018,06,18,08,29,22.80
2018,06,18,08,30,22.80
2018,06,18,08,31,22.80
2018,06,18,08,32,22.80
2018,06,18,08,33,22.80
2018,06,18,08,34,22.80
2018,06,18,08,35,22.80
2018,06,18,08,36,22.80
2018,06,18,08,37,22.80
2018,06,18,08,38,22.80
2018,06,18,08,39,22.80
2018,06,18,08,40,22.80
2018,06,18,08,41,22.80
2018,06,18,08,42,22.80
2018,06,18,08,43,22.80
2018,06,18,08,44,22.80
2018,06,18,08,45,22.80
2018,06,18,08,46,22.80
2018,06,18,08,47,22.80
2018,06,18,08,48,22.80
2018,06,18,08,49,22.80
2018,06,18,08,50,22.90
2018,06,18,08,51,22.90
2018,06,18,08,52,23.00
2018,06,18,08,53,23.10
2018,06,18,08,54,23.20
2018,06,18,08,55,23.20
2018,06,18,08,56,23.20
2018,06,18,08,57,23.20
2018,06,18,08,58,23.20
2018,06,18,08,59,23.20
2018,06,18,09,00,23.30
2018,06,18,09,01,23.30
2018,06,18,09,02,23.30
2018,06,18,09,03,23.30
2018,06,18,09,04,23.40
2018,06,18,09,05,23.50
2018,06,18,09,06,23.50
2018,06,18,09,07,23.60
2018,06,18,09,08,23.60
2018,06,18,09,09,23.60
2018,06,18,09,10,23.60
2018,06,18,09,11,23.70
2018,06,18,09,12,23.70
2018,06,18,09,13,23.80
2018,06,18,09,14,23.80
2018,06,18,09,15,23.80
2018,06,18,09,16,23.80
2018,06,18,09,17,23.80
2018,06,18,09,18,23.80
2018,06,18,09,19,23.80
2018,06,18,09,20,23.80
2018,06,18,09,21,23.80
2018,06,18,09,22,23.80
2018,06,18,09,23,23.80
2018,06,18,09,24,23.70
2018,06,18,09,25,23.70
2018,06,18,09,26,23.70
2018,06,18,09,27,23.60
2018,06,18,09,28,23.60
2018,06,18,09,29,23.60
2018,06,18,09,30,23.60
2018,06,18,09,31,23.50
2018,06,18,09,32,23.50
2018,06,18,09,33,23.40
2018,06,18,09,34,23.40
2018,06,18,09,35,23.50
2018,06,18,09,36,23.60
2018,06,18,09,37,23.70
2018,06,18,09,38,23.80
2018,06,18,09,39,23.80
2018,06,18,09,40,24.00
2018,06,18,09,41,24.10
2018,06,18,09,42,24.20
2018,06,18,09,43,24.30
2018,06,18,09,44,24.40
2018,06,18,09,45,24.50
2018,06,18,09,46,24.60
2018,06,18,09,47,24.60
2018,06,18,09,48,24.60
2018,06,18,09,49,24.50
2018,06,18,09,50,24.50
2018,06,18,09,51,24.40
2018,06,18,09,52,24.40
2018,06,18,09,53,24.40
2018,06,18,09,54,24.40
2018,06,18,09,55,24.40
2018,06,18,09,56,24.50
2018,06,18,09,57,24.50
2018,06,18,09,58,24.60
2018,06,18,09,59,24.60
2018,06,18,10,00,24.60
2018,06,18,10,01,24.50
2018,06,18,10,02,24.40
2018,06,18,10,03,24.30
2018,06,18,10,04,24.10
2018,06,18,10,05,23.90
2018,06,18,10,06,23.80
2018,06,18,10,07,23.60
2018,06,18,10,08,23.50
2018,06,18,10,09,23.40
2018,06,18,10,10,23.20
2018,06,18,10,11,23.20
2018,06,18,10,12,23.10
2018,06,18,10,13,23.00
2018,06,18,10,14,22.90
2018,06,18,10,15,22.80
2018,06,18,10,16,22.80
2018,06,18,10,17,22.80
2018,06,18,10,18,22.70
2018,06,18,10,19,22.70
2018,06,18,10,20,22.70
2018,06,18,10,21,22.70
2018,06,18,10,22,22.70
2018,06,18,10,23,22.70
2018,06,18,10,24,22.70
2018,06,18,10,25,22.80
2018,06,18,10,26,22.80
2018,06,18,10,27,22.90
2018,06,18,10,28,23.00
2018,06,18,10,29,23.00
2018,06,18,10,30,23.10
2018,06,18,10,31,23.10
2018,06,18,10,32,23.10
2018,06,18,10,33,23.20
2018,06,18,10,34,23.20
2018,06,18,10,35,23.20
2018,06,18,10,36,23.30
2018,06,18,10,37,23.30
2018,06,18,10,38,23.40
2018,06,18,10,39,23.50
2018,06,18,10,40,23.50
2018,06,18,10,41,23.40
2018,06,18,10,42,23.40
2018,06,18,10,43,23.40
2018,06,18,10,44,23.40
2018,06,18,10,45,23.40
2018,06,18,10,46,23.40
2018,06,18,10,47,23.40
2018,06,18,10,48,23.40
2018,06,18,10,49,23.40
2018,06,18,10,50,23.40
2018,06,18,10,51,23.40
2018,06,18,10,52,23.40
2018,06,18,10,53,23.50
2018,06,18,10,54,23.60
2018,06,18,10,55,23.70
2018,06,18,10,56,23.70
2018,06,18,10,57,23.80
2018,06,18,10,58,23.90
2018,06,18,10,59,24.00
2018,06,18,11,00,24.00
2018,06,18,11,01,24.00
2018,06,18,11,02,24.10
2018,06,18,11,03,24.10
2018,06,18,11,04,24.10
2018,06,18,11,05,24.00
2018,06,18,11,06,24.00
2018,06,18,11,07,23.90
2018,06,18,11,08,23.90
2018,06,18,11,09,23.90
2018,06,18,11,10,23.80
2018,06,18,11,11,23.80
2018,06,18,11,12,23.80
2018,06,18,11,13,23.90
2018,06,18,11,14,23.90
2018,06,18,11,15,23.90
2018,06,18,11,16,24.00
2018,06,18,11,17,24.00
2018,06,18,11,18,24.10
2018,06,18,11,19,24.10
2018,06,18,11,20,24.10
2018,06,18,11,21,24.10
2018,06,18,11,22,24.10
2018,06,18,11,23,24.10
2018,06,18,11,24,24.10
2018,06,18,11,25,24.10
2018,06,18,11,26,24.10
2018,06,18,11,27,24.10
2018,06,18,11,28,24.20
2018,06,18,11,29,24.20
2018,06,18,11,30,24.20
2018,06,18,11,31,24.20
2018,06,18,11,32,24.30
2018,06,18,11,33,24.40
2018,06,18,11,34,24.40
2018,06,18,11,35,24.40
2018,06,18,11,36,24.50
2018,06,18,11,37,24.50
2018,06,18,11,38,24.60
2018,06,18,11,39,24.60
2018,06,18,11,40,24.70
2018,06,18,11,41,24.70
2018,06,18,11,42,24.70
2018,06,18,11,43,24.70
2018,06,18,11,44,24.60
2018,06,18,11,45,24.60
2018,06,18,11,46,24.60
2018,06,18,11,47,24.60
2018,06,18,11,48,24.60
2018,06,18,11,49,24.50
2018,06,18,11,50,24.50
2018,06,18,11,51,24.50
2018,06,18,11,52,24.50
2018,06,18,11,53,24.40
2018,06,18,11,54,24.30
2018,06,18,11,55,24.30
2018,06,18,11,56,24.30
2018,06,18,11,57,24.30
2018,06,18,11,58,24.30
2018,06,18,11,59,24.30
2018,06,18,12,00,24.20
2018,06,18,12,01,24.20
2018,06,18,12,02,24.10
2018,06,18,12,03,24.10
2018,06,18,12,04,24.00
2018,06,18,12,05,24.00
2018,06,18,12,06,24.00
2018,06,18,12,07,24.00
2018,06,18,12,08,24.00
2018,06,18,12,09,24.00
2018,06,18,12,10,23.90
2018,06,18,12,11,23.90
2018,06,18,12,12,23.90
2018,06,18,12,13,23.80
2018,06,18,12,14,23.70
2018,06,18,12,15,23.70
2018,06,18,12,16,23.60
2018,06,18,12,17,23.60
2018,06,18,12,18,23.60
2018,06,18,12,19,23.60
2018,06,18,12,20,23.60
2018,06,18,12,21,23.70
2018,06,18,12,22,23.70
2018,06,18,12,23,23.80
2018,06,18,12,24,23.80
2018,06,18,12,25,23.90
2018,06,18,12,26,23.90
2018,06,18,12,27,24.00
2018,06,18,12,28,24.20
2018,06,18,12,29,24.30
2018,06,18,12,30,24.40
2018,06,18,12,31,24.40
2018,06,18,12,32,24.30
2018,06,18,12,33,24.20
2018,06,18,12,34,24.00
2018,06,18,12,35,23.80
2018,06,18,12,36,23.70
2018,06,18,12,37,23.70
2018,06,18,12,38,23.70
2018,06,18,12,39,23.70
2018,06,18,12,40,23.80
2018,06,18,12,41,23.80
2018,06,18,12,42,23.90
2018,06,18,12,43,23.90
2018,06,18,12,44,24.00
2018,06,18,12,45,24.00
2018,06,18,12,46,24.00
2018,06,18,12,47,23.90
2018,06,18,12,48,23.90
2018,06,18,12,49,24.00
2018,06,18,12,50,24.10
2018,06,18,12,51,24.10
2018,06,18,12,52,24.10
2018,06,18,12,53,24.10
2018,06,18,12,54,24.00
2018,06,18,12,55,24.00
2018,06,18,12,56,24.00
2018,06,18,12,57,24.10
2018,06,18,12,58,24.10
2018,06,18,12,59,24.10
2018,06,18,13,00,24.20
2018,06,18,13,01,24.20
2018,06,18,13,02,24.30
2018,06,18,13,03,24.40
2018,06,18,13,04,24.40
2018,06,18,13,05,24.40
2018,06,18,13,06,24.40
2018,06,18,13,07,24.50
2018,06,18,13,08,24.60
2018,06,18,13,09,24.70
2018,06,18,13,10,24.80
2018,06,18,13,11,24.90
2018,06,18,13,12,24.90
2018,06,18,13,13,24.90
2018,06,18,13,14,25.00
2018,06,18,13,15,25.00
2018,06,18,13,16,25.10
2018,06,18,13,17,25.20
2018,06,18,13,18,25.20
2018,06,18,13,19,25.20
2018,06,18,13,20,25.20
2018,06,18,13,21,25.30
2018,06,18,13,22,25.30
2018,06,18,13,23,25.40
2018,06,18,13,24,25.50
2018,06,18,13,25,25.60
2018,06,18,13,26,25.70
2018,06,18,13,27,25.80
2018,06,18,13,28,25.90
2018,06,18,13,29,25.90
2018,06,18,13,30,26.00
2018,06,18,13,31,26.10
2018,06,18,13,32,26.10
2018,06,18,13,33,26.20
2018,06,18,13,34,26.10
2018,06,18,13,35,26.10
2018,06,18,13,36,26.20
2018,06,18,13,37,26.20
2018,06,18,13,38,26.30
2018,06,18,13,39,26.30
2018,06,18,13,40,26.40
2018,06,18,13,41,26.50
2018,06,18,13,42,26.60
2018,06,18,13,43,26.70
2018,06,18,13,44,26.70
2018,06,18,13,45,26.80
2018,06,18,13,46,26.90
2018,06,18,13,47,27.00
2018,06,18,13,48,27.10
2018,06,18,13,49,27.20
2018,06,18,13,50,27.20
2018,06,18,13,51,27.30
2018,06,18,13,52,27.40
2018,06,18,13,53,27.40
2018,06,18,13,54,27.50
2018,06,18,13,55,27.60
2018,06,18,13,56,27.80
2018,06,18,13,57,27.90
2018,06,18,13,58,28.00
2018,06,18,13,59,28.10
2018,06,18,14,00,28.20
2018,06,18,14,01,28.20
2018,06,18,14,02,28.40
2018,06,18,14,03,28.50
2018,06,18,14,04,28.50
2018,06,18,14,05,28.60
2018,06,18,14,06,28.60
2018,06,18,14,07,28.60
2018,06,18,14,08,28.60
2018,06,18,14,09,28.60
2018,06,18,14,10,28.60
2018,06,18,14,11,28.70
2018,06,18,14,12,28.80
2018,06,18,14,13,28.90
2018,06,18,14,14,29.00
2018,06,18,14,15,29.10
2018,06,18,14,16,29.10
2018,06,18,14,17,29.10
2018,06,18,14,18,29.10
2018,06,18,14,19,29.10
2018,06,18,14,20,29.10
2018,06,18,14,21,29.10
2018,06,18,14,22,29.00
2018,06,18,14,23,28.90
2018,06,18,14,24,28.80
2018,06,18,14,25,28.70
2018,06,18,14,26,28.60
2018,06,18,14,27,28.60
2018,06,18,14,28,28.50
2018,06,18,14,29,28.60
2018,06,18,14,30,28.60
2018,06,18,14,31,28.70
2018,06,18,14,32,28.80
2018,06,18,14,33,29.00
2018,06,18,14,34,29.20
2018,06,18,14,35,29.30
2018,06,18,14,36,29.50
2018,06,18,14,37,29.60
2018,06,18,14,38,29.70
2018,06,18,14,39,29.80
2018,06,18,14,40,29.90
2018,06,18,14,41,29.90
2018,06,18,14,42,30.00
2018,06,18,14,43,30.00
2018,06,18,14,44,30.10
2018,06,18,14,45,30.10
2018,06,18,14,46,30.10
2018,06,18,14,47,30.10
2018,06,18,14,48,30.10
2018,06,18,14,49,30.10
2018,06,18,14,50,30.10
2018,06,18,14,51,30.00
2018,06,18,14,52,29.90
2018,06,18,14,53,29.80
2018,06,18,14,54,29.70
2018,06,18,14,55,29.60
2018,06,18,14,56,29.50
2018,06,18,14,57,29.50
2018,06,18,14,58,29.30
2018,06,18,14,59,29.30
2018,06,18,15,00,29.20
2018,06,18,15,01,29.10
2018,06,18,15,02,28.90
2018,06,18,15,03,28.70
2018,06,18,15,04,28.50
2018,06,18,15,05,28.40
2018,06,18,15,06,28.10
2018,06,18,15,07,27.90
2018,06,18,15,08,27.70
2018,06,18,15,09,27.60
2018,06,18,15,10,27.40
2018,06,18,15,11,27.30
2018,06,18,15,12,27.10
2018,06,18,15,13,27.00
2018,06,18,15,14,27.00
2018,06,18,15,15,26.90
2018,06,18,15,16,26.90
2018,06,18,15,17,26.90
2018,06,18,15,18,27.00
2018,06,18,15,19,27.10
2018,06,18,15,20,27.20
2018,06,18,15,21,27.40
2018,06,18,15,22,27.70
2018,06,18,15,23,27.90
2018,06,18,15,24,28.10
2018,06,18,15,25,28.20
2018,06,18,15,26,28.40
2018,06,18,15,27,28.70
2018,06,18,15,28,29.00
2018,06,18,15,29,29.40
2018,06,18,15,30,29.60
2018,06,18,15,31,29.90
2018,06,18,15,32,30.30
2018,06,18,15,33,30.60
2018,06,18,15,34,30.80
2018,06,18,15,35,31.00
2018,06,18,15,36,31.20
2018,06,18,15,37,31.40
2018,06,18,15,38,31.50
2018,06,18,15,39,31.60
2018,06,18,15,40,31.70
2018,06,18,15,41,31.80
2018,06,18,15,42,31.80
2018,06,18,15,43,31.80
2018,06,18,15,44,31.80
2018,06,18,15,45,31.80
2018,06,18,15,46,31.80
2018,06,18,15,47,31.80
2018,06,18,15,48,31.90
2018,06,18,15,49,32.00
2018,06,18,15,50,32.10
2018,06,18,15,51,32.10
2018,06,18,15,52,32.20
2018,06,18,15,53,32.30
2018,06,18,15,54,32.30
2018,06,18,15,55,32.30
2018,06,18,15,56,32.30
2018,06,18,15,57,32.30
2018,06,18,15,58,32.20
2018,06,18,15,59,32.20
2018,06,18,16,00,32.10
2018,06,18,16,01,32.10
2018,06,18,16,02,32.10
2018,06,18,16,03,32.10
2018,06,18,16,04,32.00
2018,06,18,16,05,32.00
2018,06,18,16,06,32.10
2018,06,18,16,07,32.10
2018,06,18,16,08,32.10
2018,06,18,16,09,32.20
2018,06,18,16,10,32.20
2018,06,18,16,11,32.30
2018,06,18,16,12,32.40
2018,06,18,16,13,32.40
2018,06,18,16,14,32.40
2018,06,18,16,15,32.40
2018,06,18,16,16,32.40
2018,06,18,16,17,32.50
2018,06,18,16,18,32.50
2018,06,18,16,19,32.50
2018,06,18,16,20,32.60
2018,06,18,16,21,32.60
2018,06,18,16,22,32.50
2018,06,18,16,23,32.60
2018,06,18,16,24,32.50
2018,06,18,16,25,32.50
2018,06,18,16,26,32.50
2018,06,18,16,27,32.50
2018,06,18,16,28,32.50
2018,06,18,16,29,32.40
2018,06,18,16,30,32.40
2018,06,18,16,31,32.40
2018,06,18,16,32,32.30
2018,06,18,16,33,32.30
2018,06,18,16,34,32.30
2018,06,18,16,35,32.20
2018,06,18,16,36,32.20
2018,06,18,16,37,32.20
2018,06,18,16,38,32.10
2018,06,18,16,39,32.10
2018,06,18,16,40,32.10
2018,06,18,16,41,32.00
2018,06,18,16,42,32.00
2018,06,18,16,43,32.00
2018,06,18,16,44,32.10
2018,06,18,16,45,32.20
2018,06,18,16,46,32.20
2018,06,18,16,47,32.30
2018,06,18,16,48,32.30
2018,06,18,16,49,32.30
2018,06,18,16,50,32.40
2018,06,18,16,51,32.50
2018,06,18,16,52,32.50
2018,06,18,16,53,32.50
2018,06,18,16,54,32.40
2018,06,18,16,55,32.30
2018,06,18,16,56,32.20
2018,06,18,16,57,32.20
2018,06,18,16,58,32.10
2018,06,18,16,59,32.00
2018,06,18,17,00,31.90
2018,06,18,17,01,31.80
2018,06,18,17,02,31.70
2018,06,18,17,03,31.60
2018,06,18,17,04,31.50
2018,06,18,17,05,31.40
2018,06,18,17,06,31.30
2018,06,18,17,07,31.30
2018,06,18,17,08,31.30
2018,06,18,17,09,31.30
2018,06,18,17,10,31.40
2018,06,18,17,11,31.40
2018,06,18,17,12,31.50
2018,06,18,17,13,31.60
2018,06,18,17,14,31.60
2018,06,18,17,15,31.60
2018,06,18,17,16,31.60
2018,06,18,17,17,31.50
2018,06,18,17,18,31.50
2018,06,18,17,19,31.50